Tracking 25656 objects as of 21-May-2022
HD Live streaming from Space Station
objects crossing your sky now

FLOCK 4V 24

Track FLOCK 4V 24 now!
10-day predictions


NORAD ID: 46738
Int'l Code: 2020-061BN
Perigee: 509.1 km
Apogee: 516.4 km
Inclination: 97.4 °
Period: 94.7 minutes
Semi major axis: 6883 km
RCS: Unknown
Launch date: September 3, 2020
Source: United States (US)
Launch site: FRENCH GUIANA (FRGUI)
aabbcc
Your satellite tracking list
Your tracking list is empty




NASA's NSSDC Master Catalog

Two Line Element Set (TLE):
1 46738U 20061BN  22141.63341163  .00015564  00000-0  72303-3 0  9993
2 46738  97.4055 213.7683 0005263 218.4505 141.6344 15.20072843 87168
Source of the keplerian elements: AFSPC